Location: Unspecified
(64.9000°N, 0.0000°E)
Time: 07:13:41
(UTC+00:00)

Altair - Pass Details

Date: 20 June 2019
Orbit: 1501 x 1683 km, 47.2° (Epoch: 19 July)

Event Time Altitude Azimuth Distance (km) Brightness Sun altitude
Rises 01:52:34 0° 267° (W) 4,846 9.8 0.9°
Reaches altitude 10° 01:56:45 10° 252° (WSW) 3,887 9.2 1.1°
Maximum altitude 02:03:13 20° 211° (SSW) 3,197 8.6 1.4°
Drops below altitude 10° 02:09:46 10° 170° (S) 3,938 9.2 1.7°
Sets 02:14:04 0° 155° (SSE) 4,930 9.8 2.0°
